[[{"header":{"parameterUnit":"m.s-1","parameterCategory":1,"la1":30.2991,"la2":30.254,"lo1":-89.0895,"lo2":-89.0444,"dy":0.0017,"dx":0.0017,"nx":28,"ny":28,"refTime":"2025-08-29T21:00:00:Z","depth":0,"parameterNumber":2,"parameterNumberName":"U-component_of_WINDS"},"data":[0,0,0,0,0,0,0,0,0,0,0,0,0,0,0,0,0,0,0,0,0,0,0,0,0,0,0,0,0,0,0,0,0,0,0,0,0,0,0,0,0,0,0,0,0,0,0,0,0,0,0,0,0,0,0,0,0,0,-3.2354,-3.2356,0,-3.2538,-3.254,-3.2542,-3.2565,-3.2563,-3.2562,-3.256,-3.2749,-3.2756,-3.2762,0,0,0,0,0,0,0,0,0,0,0,0,0,-3.2022,-3.2028,-3.2354,-3.2357,-3.2359,-3.2538,-3.254,-3.2543,-3.2565,-3.2563,-3.2561,-3.2559,-3.2747,-3.2755,-3.2763,0,0,0,0,0,0,0,0,0,0,0,0,0,-3.2182,-3.203,-3.2354,-3.2392,-3.2397,-3.2537,-3.254,-3.2543,-3.2566,-3.2563,-3.2561,-3.2558,-3.2744,-3.2754,-3.2764,-3.288,0,0,-3.2795,-3.2799,0,0,0,0,0,0,0,0,-3.2173,-3.2195,-3.2384,-3.2389,-3.2395,-3.2526,-3.2493,-3.2656,-3.2567,-3.2502,-3.256,-3.2557,-3.2677,-3.2693,-3.2733,-3.2888,-3.2897,-3.2796,-3.2802,-3.2806,-3.2809,0,0,0,0,0,0,0,-3.2162,-3.2187,-3.2427,-3.2387,-3.2394,-3.2399,-3.2419,-3.2524,-3.2602,-3.2507,-3.2509,-3.2531,-3.268,-3.2723,-3.2738,-3.2899,-3.2795,-3.2804,-3.2811,-3.2814,-3.3155,-3.3158,0,0,0,0,0,0,-3.2144,-3.2177,-3.2421,-3.2432,-3.2275,-3.2407,-3.2429,-3.2487,-3.2601,-3.2616,-3.2533,-3.2531,-3.2707,-3.2726,-3.2744,-3.2885,-3.2806,-3.2815,-3.2821,-3.3152,-3.3156,-3.3159,0,0,0,0,0,0,-3.2137,-3.2166,-3.2414,-3.2306,-3.2338,-3.2416,-3.248,-3.2492,-3.2535,-3.262,-3.2635,-3.2563,-3.2706,-3.273,-3.2845,-3.2892,-3.282,-3.2829,-3.3149,-3.3154,-3.3158,-3.3168,0,0,0,0,0,0,-3.2127,-3.2163,-3.2208,-3.2306,-3.2343,-3.2512,-3.2483,-3.2497,-3.2552,-3.2552,-3.2652,-3.2666,-3.2706,-3.283,-3.2855,-3.2904,-3.2837,-3.3145,-3.3151,-3.3156,-3.3164,-3.3172,-3.3179,0,0,0,0,0,-3.2115,-3.2205,-3.221,-3.2239,-3.2401,-3.2514,-3.2535,-3.2578,-3.2556,-3.2601,-3.2656,-3.2663,-3.2883,-3.2841,-3.287,-3.2923,-3.3142,-3.3149,-3.3156,-3.316,-3.317,-3.3179,0,0,0,0,0,0,-3.2111,-3.2218,-3.2226,-3.2349,-3.2422,-3.2518,-3.2577,-3.2589,-3.267,-3.2666,-3.2716,-3.2739,-3.2851,-3.2899,-3.2851,-3.3039,-3.301,-3.3023,-3.3004,-3.3014,-3.3022,-3.3008,-3.2845,0,0,0,0,0,-3.2124,-3.2207,-3.2296,-3.2397,-3.2433,-3.2498,-3.2549,-3.2576,-3.2654,-3.2685,-3.2748,-3.2823,-3.2909,-3.2964,-3.3048,-3.3171,-3.3192,-3.3221,-3.3229,-3.3235,-3.3245,-3.3311,-3.3324,-3.3182,-3.3182,-3.3182,0,0,-3.2152,-3.2221,-3.2271,-3.2397,-3.2457,-3.2541,-3.2524,-3.2615,-3.2677,-3.2699,-3.281,-3.2859,-3.2946,-3.3064,-3.312,-3.3108,-3.3289,-3.3244,-3.3248,-3.3255,-3.3319,-3.3332,-3.3344,-3.3186,-3.3186,-3.3185,0,0,-3.2247,-3.2308,-3.2397,-3.2456,-3.2546,-3.2589,-3.261,-3.2704,-3.2736,-3.2849,-3.2866,-3.2941,-3.3088,-3.3149,-3.3199,-3.3313,-3.3322,-3.3339,-3.338,-3.3443,-3.3454,-3.3464,-3.3503,-3.3517,-3.3349,-3.3349,-3.3349,0,-3.2271,-3.2398,-3.2441,-3.253,-3.2584,-3.2607,-3.2696,-3.2752,-3.2865,-3.2902,-3.2887,-3.307,-3.313,-3.3262,-3.3289,-3.333,-3.3354,-3.3328,-3.3449,-3.346,-3.347,-3.3507,-3.3522,-3.335,-3.335,-3.335,-3.335,0,-3.2422,-3.2509,-3.2571,-3.2677,-3.2739,-3.2827,-3.2883,-3.294,-3.2961,-3.3005,-3.3117,-3.3191,-3.3288,-3.3322,-3.3344,-3.3456,-3.3445,-3.3439,-3.3411,-3.3484,-3.352,-3.3535,-3.3352,-3.3352,-3.3351,-3.3351,0,0,-3.252,-3.2647,-3.2669,-3.2716,-3.2816,-3.2884,-3.2973,-3.3068,-3.3114,-3.3191,-3.3266,-3.3388,-3.3382,-3.3439,-3.3468,-3.3524,-3.3606,-3.3511,-3.3514,-3.3524,-3.3731,-3.3734,-3.375,-3.3613,-3.3616,-3.3618,-3.3723,0,-3.2624,-3.2782,-3.2823,-3.2958,-3.3038,-3.3059,-3.3136,-3.3205,-3.3248,-3.3322,-3.3369,-3.3454,-3.3442,-3.3476,-3.3532,-3.3584,-3.3648,-3.3578,-3.3682,-3.3685,-3.3658,-3.3769,-3.3773,-3.3868,-3.3738,-3.374,-3.3742,0,-3.2767,-3.2844,-3.2987,-3.3073,-3.3108,-3.3177,-3.3265,-3.3336,-3.3414,-3.3441,-3.3503,-3.3526,-3.3618,-3.3585,-3.3712,-3.3663,-3.3708,-3.374,-3.3745,-3.3755,-3.3717,-3.3781,-3.39,-3.3914,-3.3765,-3.3763,-3.3761,0,-3.2821,-3.2961,-3.3064,-3.3104,-3.3208,-3.3255,-3.3301,-3.3376,-3.343,-3.3507,-3.3541,-3.3629,-3.3676,-3.3743,-3.3788,-3.3761,-3.3911,-3.3882,-3.3935,-3.3933,-3.3965,-3.3962,-3.4091,-3.3996,-3.3996,-3.3996,-3.3995,0,-3.2932,-3.3018,-3.3089,-3.3152,-3.3248,-3.3293,-3.3387,-3.3433,-3.3499,-3.3571,-3.3595,-3.3662,-3.3718,-3.3792,-3.3828,-3.3926,-3.3948,-3.3972,-3.398,-3.3969,-3.3966,-3.3998,-3.3992,-3.4,-3.3999,-3.3998,-3.3997,0,-3.3008,-3.306,-3.3172,-3.3261,-3.3285,-3.3351,-3.3427,-3.3488,-3.3531,-3.3621,-3.3645,-3.3712,-3.38,-3.3852,-3.3964,-3.3988,-3.4096,-3.4102,-3.4069,-3.4073,-3.4121,-3.4115,-3.4275,-3.4297,-3.4189,-3.419,-3.419,0,-3.3075,-3.3141,-3.3236,-3.3285,-3.3331,-3.341,-3.3464,-3.351,-3.3565,-3.3657,-3.3707,-3.3797,-3.387,-3.401,-3.4069,-3.4154,-3.4161,-3.4211,-3.4174,-3.416,-3.4159,-3.4154,-3.416,-3.4217,-3.4218,-3.4219,-3.4219,0,-3.3187,-3.3209,-3.3285,-3.337,-3.3432,-3.3502,-3.3571,-3.3609,-3.3667,-3.3728,-3.3817,-3.3874,-3.3987,-3.4075,-3.4164,-3.4211,-3.4224,-3.4231,-3.4247,-3.4235,-3.4212,-3.4223,-3.4084,-3.4227,-3.4226,-3.4225,-3.4225,-3.4225,-3.326,-3.3318,-3.3393,-3.3476,-3.3533,-3.3596,-3.3657,-3.3706,-3.3781,-3.3876,-3.3899,-3.3993,-3.4067,-3.4188,-3.4237,-3.431,-3.4302,-3.4326,-3.4331,-3.4336,-3.4336,-3.4201,-3.4327,-3.4327,-3.4327,-3.4327,-3.4326,0,-3.3371,-3.342,-3.3496,-3.359,-3.3655,-3.3662,-3.3737,-3.3791,-3.3873,-3.3941,-3.4012,-3.4114,-3.4198,-3.4263,-3.4349,-3.4395,-3.4404,-3.4416,-3.4413,-3.4423,-3.434,-3.4316,-3.4408,-3.4408,-3.4408,-3.4408,-3.4408,-3.4408,-3.3437,-3.3535,-3.3565,-3.3691,-3.3739,-3.383,-3.3872,-3.393,-3.3984,-3.4096,-3.4166,-3.4207,-3.4273,-3.4364,-3.4441,-3.4458,-3.4488,-3.4499,-3.4516,-3.4438,-3.4429,-3.442,-3.4398,-3.4506,-3.4506,-3.4593,-3.4593,-3.4594]},{"header":{"parameterUnit":"m.s-1","parameterCategory":1,"la1":30.2991,"la2":30.254,"lo1":-89.0895,"lo2":-89.0444,"dy":0.0017,"dx":0.0017,"nx":28,"ny":28,"refTime":"2025-08-29T21:00:00:Z","depth":0,"parameterNumber":3,"parameterNumberName":"V-component_of_WINDS"},"data":[0,0,0,0,0,0,0,0,0,0,0,0,0,0,0,0,0,0,0,0,0,0,0,0,0,0,0,0,0,0,0,0,0,0,0,0,0,0,0,0,0,0,0,0,0,0,0,0,0,0,0,0,0,0,0,0,0,0,-2.1919,-2.1919,0,-2.1925,-2.1925,-2.1925,-2.1891,-2.189,-2.1889,-2.1888,-2.1895,-2.1896,-2.1897,0,0,0,0,0,0,0,0,0,0,0,0,0,-2.1878,-2.1879,-2.1919,-2.192,-2.192,-2.1925,-2.1925,-2.1925,-2.1891,-2.189,-2.1889,-2.1888,-2.1894,-2.1896,-2.1897,0,0,0,0,0,0,0,0,0,0,0,0,0,-2.1891,-2.1879,-2.1919,-2.1903,-2.1902,-2.1925,-2.1925,-2.1925,-2.1892,-2.189,-2.1889,-2.1887,-2.1894,-2.1896,-2.1897,-2.1936,0,0,-2.1902,-2.1903,0,0,0,0,0,0,0,0,-2.1891,-2.1893,-2.1906,-2.1904,-2.1903,-2.1906,-2.1913,-2.1929,-2.1892,-2.1896,-2.1888,-2.1887,-2.19,-2.1901,-2.1905,-2.1937,-2.1937,-2.1902,-2.1903,-2.1904,-2.1904,0,0,0,0,0,0,0,-2.189,-2.1892,-2.1922,-2.1906,-2.1904,-2.1896,-2.1896,-2.1916,-2.1906,-2.1895,-2.1893,-2.1894,-2.1899,-2.1904,-2.1905,-2.1937,-2.1902,-2.1904,-2.1905,-2.1905,-2.1999,-2.2001,0,0,0,0,0,0,-2.1891,-2.1892,-2.1922,-2.1922,-2.1893,-2.1897,-2.1898,-2.1907,-2.1905,-2.1904,-2.1895,-2.1892,-2.1902,-2.1903,-2.1905,-2.1949,-2.1904,-2.1905,-2.1906,-2.1998,-2.2,-2.2001,0,0,0,0,0,0,-2.189,-2.1894,-2.1921,-2.1906,-2.1909,-2.19,-2.191,-2.1907,-2.1912,-2.1905,-2.1903,-2.1902,-2.19,-2.1903,-2.1928,-2.1949,-2.1906,-2.1908,-2.1996,-2.1998,-2.2,-2.204,0,0,0,0,0,0,-2.1889,-2.1894,-2.1909,-2.1907,-2.191,-2.1945,-2.1911,-2.1909,-2.1915,-2.1911,-2.1911,-2.191,-2.1899,-2.1926,-2.193,-2.1951,-2.1909,-2.1994,-2.1997,-2.2,-2.2036,-2.2043,-2.2049,0,0,0,0,0,-2.1888,-2.192,-2.191,-2.1914,-2.1929,-2.1946,-2.1948,-2.1935,-2.1917,-2.1932,-2.1927,-2.191,-2.1947,-2.1929,-2.1933,-2.1955,-2.1993,-2.1996,-2.1999,-2.2034,-2.2042,-2.2048,0,0,0,0,0,0,-2.1926,-2.192,-2.1908,-2.1941,-2.1944,-2.194,-2.1959,-2.1944,-2.1953,-2.1949,-2.1933,-2.1933,-2.1961,-2.1961,-2.1941,-2.1992,-2.1966,-2.1971,-2.1991,-2.1998,-2.2004,-2.2003,-2.191,0,0,0,0,0,-2.1938,-2.1953,-2.1947,-2.1976,-2.1978,-2.1968,-2.1975,-2.1965,-2.1968,-2.1969,-2.1967,-2.197,-2.1982,-2.199,-2.2001,-2.2036,-2.2035,-2.2053,-2.2059,-2.2064,-2.2068,-2.2085,-2.2092,-2.2013,-2.2012,-2.2012,0,0,-2.1963,-2.1962,-2.1972,-2.1984,-2.1985,-2.2,-2.197,-2.1988,-2.1998,-2.1972,-2.1995,-2.1994,-2.1996,-2.2026,-2.204,-2.2027,-2.209,-2.2069,-2.2073,-2.2073,-2.2089,-2.2096,-2.2103,-2.2015,-2.2014,-2.2014,0,0,-2.2016,-2.2017,-2.2041,-2.2043,-2.2045,-2.2038,-2.2044,-2.2042,-2.2039,-2.2062,-2.2043,-2.2055,-2.2077,-2.2079,-2.2083,-2.2136,-2.212,-2.214,-2.2172,-2.2188,-2.2194,-2.22,-2.2217,-2.2224,-2.2144,-2.2144,-2.2144,0,-2.2047,-2.2069,-2.2055,-2.2074,-2.2079,-2.2055,-2.2078,-2.2081,-2.2087,-2.2091,-2.2076,-2.2102,-2.2102,-2.2131,-2.2144,-2.2149,-2.2154,-2.214,-2.2195,-2.22,-2.2205,-2.2221,-2.2228,-2.2146,-2.2146,-2.2146,-2.2146,0,-2.2107,-2.2122,-2.2141,-2.2146,-2.2154,-2.2175,-2.2163,-2.2172,-2.2161,-2.2156,-2.2179,-2.2178,-2.2188,-2.2194,-2.2184,-2.2222,-2.2214,-2.2198,-2.2171,-2.2215,-2.223,-2.2236,-2.215,-2.2149,-2.2148,-2.2148,0,0,-2.2184,-2.218,-2.2187,-2.2188,-2.2189,-2.22,-2.222,-2.2229,-2.2236,-2.2241,-2.2256,-2.2275,-2.2259,-2.2263,-2.2253,-2.2268,-2.2308,-2.225,-2.2249,-2.2259,-2.2348,-2.2359,-2.2367,-2.2298,-2.2299,-2.23,-2.2347,0,-2.2235,-2.2267,-2.2254,-2.2288,-2.2301,-2.2279,-2.2296,-2.2297,-2.2292,-2.2303,-2.2298,-2.231,-2.2289,-2.2292,-2.2305,-2.23,-2.2325,-2.2297,-2.2311,-2.2312,-2.231,-2.2375,-2.2387,-2.2432,-2.2353,-2.2354,-2.2355,0,-2.2298,-2.2304,-2.2339,-2.2335,-2.234,-2.2356,-2.2362,-2.2373,-2.2374,-2.2369,-2.2374,-2.236,-2.2378,-2.2353,-2.2378,-2.2358,-2.2364,-2.2362,-2.2363,-2.2363,-2.2335,-2.2375,-2.2446,-2.2452,-2.2364,-2.2363,-2.2363,0,-2.2349,-2.2366,-2.2388,-2.2391,-2.2387,-2.2398,-2.2398,-2.2397,-2.2403,-2.2409,-2.2412,-2.242,-2.2424,-2.2431,-2.2419,-2.2402,-2.2445,-2.2419,-2.2441,-2.2441,-2.245,-2.2449,-2.2521,-2.2456,-2.2456,-2.2455,-2.2455,0,-2.2406,-2.2428,-2.2411,-2.2425,-2.2448,-2.2433,-2.2456,-2.2453,-2.2453,-2.2465,-2.2447,-2.2459,-2.2444,-2.2454,-2.2446,-2.2466,-2.2469,-2.2465,-2.2462,-2.2466,-2.2466,-2.2468,-2.2464,-2.2457,-2.2457,-2.2456,-2.2456,0,-2.2466,-2.2456,-2.2479,-2.2473,-2.2472,-2.249,-2.2485,-2.2497,-2.2491,-2.2507,-2.251,-2.25,-2.2511,-2.25,-2.2511,-2.2505,-2.2533,-2.2526,-2.2532,-2.2529,-2.2551,-2.2549,-2.2625,-2.2634,-2.2565,-2.2565,-2.2566,0,-2.2502,-2.2518,-2.2514,-2.2521,-2.2521,-2.2532,-2.2538,-2.2524,-2.253,-2.2532,-2.2544,-2.2553,-2.256,-2.2579,-2.2572,-2.258,-2.2573,-2.2599,-2.2574,-2.2577,-2.2572,-2.257,-2.2571,-2.2604,-2.2605,-2.2606,-2.2606,0,-2.2568,-2.2561,-2.257,-2.2576,-2.2583,-2.2587,-2.259,-2.2597,-2.2582,-2.259,-2.2601,-2.2606,-2.2616,-2.2626,-2.2632,-2.2631,-2.2616,-2.2614,-2.2619,-2.2623,-2.2625,-2.2622,-2.2544,-2.2612,-2.2612,-2.2611,-2.2611,-2.2611,-2.2616,-2.2628,-2.2627,-2.2636,-2.2637,-2.264,-2.265,-2.2645,-2.2654,-2.2661,-2.2652,-2.2665,-2.2665,-2.2671,-2.2672,-2.2682,-2.267,-2.2678,-2.268,-2.2682,-2.2684,-2.2624,-2.2683,-2.2683,-2.2682,-2.2682,-2.2682,0,-2.2678,-2.2676,-2.2685,-2.2689,-2.2696,-2.2682,-2.2684,-2.2691,-2.2702,-2.2703,-2.271,-2.2722,-2.2731,-2.2725,-2.2732,-2.2741,-2.2734,-2.2743,-2.2742,-2.2741,-2.2694,-2.2689,-2.2749,-2.2749,-2.2749,-2.2748,-2.2748,-2.2748,-2.2712,-2.2731,-2.2725,-2.2744,-2.2742,-2.2754,-2.2756,-2.2759,-2.2759,-2.2773,-2.278,-2.2776,-2.2774,-2.2781,-2.2788,-2.2786,-2.2789,-2.28,-2.2796,-2.2752,-2.2745,-2.2739,-2.2733,-2.2801,-2.2801,-2.2842,-2.2842,-2.2842]}]]